Location: Umburanas
(4.5000°S, 37.9667°W)
Time: 20:33:29
(UTC+00:00)

Cosmos 1939 Rocket - Pass Details

Date: 19 November 2019
Orbit: 531 x 586 km, 97.4° (Epoch: 14 December)

Event Time Altitude Azimuth Distance (km) Brightness Sun altitude
Rises 21:35:06 0° 161° (SSE) 2,791 6.5 -16.7°
Reaches altitude 10° 21:37:18 10° 156° (SSE) 1,895 5.5 -17.2°
Maximum altitude 21:41:19 52° 79° (E) 724 3.0 -18.1°
Enters shadow 21:43:37 23° 12° (NNE) 1,243 4.3 -18.6°
